Location: Newark
(39.5667°N, 8.9833°E)
Time: 19:57:38
(UTC+00:00)

SR - All Passes

Search period start: 21 October 2019 00:00
Search period end: 31 October 2019 00:00
Orbit: 574 x 881 km, 66.7° (Epoch: 21 October)

Date Brightness Start Highest point End Pass type
(mag) Time Alt. Az. Time Alt. Az. Time Alt. Az.
21 Oct - 04:37:37 10° N 04:41:31 18° NE 04:45:26 10° E visible
21 Oct - 06:18:30 10° NNW 06:24:28 89° ENE 06:30:20 10° SSE daylight
21 Oct - 08:03:06 10° WNW 08:05:45 13° WSW 08:08:23 10° SW daylight
21 Oct - 20:47:29 10° SSW 20:52:21 74° ESE 20:57:43 10° NNE night (unlit)
21 Oct - 22:31:39 10° W 22:35:09 18° NW 22:38:49 10° N night (unlit)
22 Oct - 03:49:49 10° NNE 03:51:09 11° NE 03:52:30 10° NE visible
22 Oct - 05:28:58 10° NNW 05:34:42 49° NE 05:40:23 10° SE daylight
22 Oct - 07:11:41 10° NW 07:16:33 27° WSW 07:21:19 10° SSW daylight
22 Oct - 19:58:31 10° S 20:02:55 35° ESE 20:07:42 10° NE night (unlit)
22 Oct - 21:40:33 10° WSW 21:45:00 31° NW 21:49:51 10° NNE night (unlit)
23 Oct - 04:39:42 10° N 04:44:45 28° NE 04:49:46 10° ESE visible
23 Oct - 06:21:24 10° NW 06:27:09 52° WSW 06:32:46 10° S daylight
23 Oct - 19:10:37 10° SE 19:13:41 17° ESE 19:16:55 10° ENE night (unlit)
23 Oct - 20:50:13 10° SW 20:55:06 59° WNW 21:00:30 10° NNE night (unlit)
23 Oct - 22:36:55 10° NW 22:38:31 11° NW 22:40:08 10° NNW night (unlit)
24 Oct - 03:50:48 10° N 03:54:34 17° NE 03:58:20 10° E visible
24 Oct - 05:31:35 10° NNW 05:37:34 84° ENE 05:43:25 10° SSE daylight
24 Oct - 07:15:56 10° WNW 07:18:54 14° WSW 07:21:49 10° SW daylight
24 Oct - 20:00:34 10° SSW 20:05:27 69° ESE 20:10:50 10° NNE night (unlit)
24 Oct - 21:44:32 10° W 21:48:10 19° NW 21:52:02 10° N night (unlit)
25 Oct - 03:03:25 10° NNE 03:04:11 10° NE 03:04:56 10° NE visible
25 Oct - 04:42:05 10° NNW 04:47:47 46° NE 04:53:25 10° SE visible
25 Oct - 06:24:42 10° NW 06:29:40 28° WSW 06:34:33 10° SSW daylight
25 Oct - 19:11:40 10° S 19:16:02 33° ESE 19:20:46 10° NE night (unlit)
25 Oct - 20:53:31 10° WSW 20:58:04 33° NW 21:03:00 10° NNE night (unlit)
26 Oct - 03:52:51 10° N 03:57:49 27° NE 04:02:44 10° ESE visible
26 Oct - 05:34:29 10° NW 05:40:16 55° WSW 05:45:55 10° S daylight
26 Oct - 18:23:54 10° SE 18:26:49 16° ESE 18:29:51 10° ENE night (unlit)
26 Oct - 20:03:15 10° SW 20:08:11 63° WNW 20:13:37 10° NNE night (unlit)
26 Oct - 21:49:34 10° WNW 21:51:31 12° NW 21:53:32 10° NNW night (unlit)
27 Oct - 03:03:59 10° N 03:07:36 16° NE 03:11:13 10° E visible
27 Oct - 04:44:42 10° NNW 04:50:40 80° ENE 04:56:31 10° SSE visible
27 Oct - 06:28:49 10° WNW 06:32:03 15° WSW 06:35:14 10° SW daylight
27 Oct - 19:13:39 10° SSW 19:18:32 65° ESE 19:23:56 10° NE visible
27 Oct - 20:57:25 10° W 21:01:13 20° NW 21:05:13 10° N night (unlit)
28 Oct - 03:55:12 10° NNW 04:00:53 44° NE 04:06:27 10° SE visible
28 Oct - 05:37:44 10° NW 05:42:48 30° WSW 05:47:45 10° SSW daylight
28 Oct - 18:24:49 10° S 18:29:08 31° ESE 18:33:49 10° NE visible
28 Oct - 20:06:29 10° WSW 20:11:07 35° NW 20:16:09 10° NNE visible
29 Oct - 03:05:59 10° N 03:10:53 26° NE 03:15:42 10° ESE visible
29 Oct - 04:47:33 10° NW 04:53:23 58° WSW 04:59:03 10° SSE visible
29 Oct - 17:37:12 10° SE 17:39:56 15° ESE 17:42:47 10° ENE visible
29 Oct - 19:16:17 10° SW 19:21:15 67° WNW 19:26:44 10° NNE visible
29 Oct - 21:02:16 10° WNW 21:04:32 13° NW 21:06:53 10° NNW night (unlit)
30 Oct - 02:17:11 10° N 02:20:39 16° NE 02:24:06 10° ENE visible
30 Oct - 03:57:48 10° NNW 04:03:46 76° ENE 04:09:35 10° SSE visible
30 Oct - 05:41:43 10° WNW 05:45:11 16° WSW 05:48:35 10° SW daylight
30 Oct - 18:26:44 10° SSW 18:31:38 61° ESE 18:37:01 10° NE visible
30 Oct - 20:10:19 10° W 20:14:14 21° NW 20:18:25 10° N visible
